Location: Góry Miechowskie
(50.3599°N, 20.1803°E)
Time: 07:34:45
(UTC+00:00)

Cosmos 1461 - Pass Details

Date: 13 September 2024
Orbit: 489 x 565 km, 65.0° (Epoch: 12 October)

Event Time Altitude Azimuth Distance (km) Brightness Sun altitude
Exits shadow 00:09:14 16° 37° (NE) 1,357 5.5 -32.3°
Drops below altitude 10° 00:10:03 10° 38° (NE) 1,689 6.1 -32.2°
Sets 00:12:13 0° 40° (NE) 2,578 7.3 -32.1°
